TimeEST,TemperatureF,Dew PointF,Humidity,Sea Level PressureIn,VisibilityMPH,Wind Direction,Wind SpeedMPH,Gust SpeedMPH,PrecipitationIn,Events,Conditions,WindDirDegrees,DateUTC
12:54 AM,35.1,30.9,85,30.25,10.0,Calm,Calm,-,N/A,,Clear,0,2012-11-10 05:54:00
1:54 AM,34.0,30.0,85,30.25,10.0,Calm,Calm,-,N/A,,Clear,0,2012-11-10 06:54:00
2:54 AM,34.0,30.0,85,30.26,10.0,Calm,Calm,-,N/A,,Clear,0,2012-11-10 07:54:00
3:54 AM,33.1,30.0,89,30.27,10.0,Calm,Calm,-,N/A,,Clear,0,2012-11-10 08:54:00
4:54 AM,32.0,28.9,88,30.29,10.0,Calm,Calm,-,N/A,,Clear,0,2012-11-10 09:54:00
5:54 AM,33.1,30.0,89,30.30,10.0,Calm,Calm,-,N/A,,Clear,0,2012-11-10 10:54:00
7:54 AM,37.0,33.1,86,30.34,10.0,Calm,Calm,-,N/A,,Clear,0,2012-11-10 12:54:00
8:54 AM,42.1,34.0,73,30.34,10.0,Calm,Calm,-,N/A,,Mostly Cloudy,0,2012-11-10 13:54:00
9:54 AM,45.0,37.9,76,30.35,10.0,Calm,Calm,-,0.00,,Overcast,0,2012-11-10 14:54:00
10:54 AM,48.9,36.0,61,30.35,10.0,Calm,Calm,-,N/A,,Overcast,0,2012-11-10 15:54:00
11:54 AM,53.1,37.0,55,30.33,10.0,Calm,Calm,-,N/A,,Overcast,0,2012-11-10 16:54:00
12:54 PM,55.9,37.0,49,30.32,10.0,Calm,Calm,-,N/A,,Overcast,0,2012-11-10 17:54:00
1:54 PM,55.9,37.9,51,30.30,10.0,Calm,Calm,-,N/A,,Overcast,0,2012-11-10 18:54:00
2:54 PM,55.9,37.0,49,30.31,10.0,Calm,Calm,-,N/A,,Overcast,0,2012-11-10 19:54:00
3:54 PM,57.0,37.9,49,30.32,10.0,East,3.5,-,N/A,,Clear,100,2012-11-10 20:54:00
4:54 PM,52.0,39.0,61,30.33,10.0,Calm,Calm,-,N/A,,Scattered Clouds,0,2012-11-10 21:54:00
5:54 PM,51.1,37.9,61,30.35,10.0,Calm,Calm,-,N/A,,Mostly Cloudy,0,2012-11-10 22:54:00
6:54 PM,48.0,37.9,68,30.36,10.0,Calm,Calm,-,N/A,,Clear,0,2012-11-10 23:54:00
7:54 PM,46.0,37.9,73,30.38,10.0,Calm,Calm,-,N/A,,Clear,0,2012-11-11 00:54:00
8:54 PM,44.1,37.0,76,30.40,10.0,Calm,Calm,-,N/A,,Clear,0,2012-11-11 01:54:00
9:54 PM,42.1,37.0,82,30.41,8.0,Calm,Calm,-,N/A,,Clear,0,2012-11-11 02:54:00
11:54 PM,42.1,37.0,82,30.40,9.0,Calm,Calm,-,N/A,,Partly Cloudy,0,2012-11-11 04:54:00